CST,Max TemperatureF,Mean TemperatureF,Min TemperatureF,Max Dew PointF,MeanDew PointF,Min DewpointF,Max Humidity, Mean Humidity, Min Humidity, Max Sea Level PressureIn, Mean Sea Level PressureIn, Min Sea Level PressureIn, Max VisibilityMiles, Mean VisibilityMiles, Min VisibilityMiles, Max Wind SpeedMPH, Mean Wind SpeedMPH, Max Gust SpeedMPH,PrecipitationIn, CloudCover, Events, WindDirDegrees
2012-12-1,44,36,28,38,32,27,96,86,76,30.05,29.82,29.75,4,2,0,25,7,33,0.00,6,Fog,155
2012-12-2,39,32,25,36,31,25,100,96,92,30.02,29.89,29.74,4,1,0,15,6,20,0.00,6,Fog,137
2012-12-3,53,46,38,48,41,26,100,77,53,29.93,29.65,29.53,10,5,1,25,13,31,0.01,5,,200
2012-12-4,40,27,13,25,13,9,74,58,42,30.46,30.24,29.96,10,10,10,21,10,28,0.00,0,,308
2012-12-5,41,27,13,25,14,8,84,64,43,30.46,30.19,29.85,10,10,10,22,11,28,0.00,2,,135
2012-12-6,44,33,21,34,26,17,84,68,51,30.05,29.90,29.78,10,10,10,22,11,28,0.02,3,Rain,281
2012-12-7,30,24,17,23,20,15,92,83,74,30.12,30.07,30.02,10,5,1,9,3,12,0.04,6,Snow,351
2012-12-8,30,26,21,26,21,17,92,82,72,30.11,30.06,29.97,10,8,1,9,3,13,0.03,6,Snow,102
2012-12-9,30,20,10,27,23,5,92,86,80,30.06,29.96,29.86,10,2,0,22,11,30,0.87,8,Fog-Snow,39
2012-12-10,11,3,-6,4,-2,-8,87,75,63,30.05,30.00,29.91,10,9,2,15,6,22,0.02,3,Snow,326
2012-12-11,17,5,-8,8,-1,-11,95,81,67,30.07,29.91,29.76,10,8,2,14,3,0,T,4,Snow,219
2012-12-12,33,14,-6,25,16,-10,92,78,63,30.08,29.94,29.83,10,8,5,13,6,16,0.00,2,,141
2012-12-13,32,21,9,23,17,7,92,81,69,30.21,30.06,29.94,8,6,3,12,3,15,0.00,1,,357
2012-12-14,34,21,7,26,15,6,96,86,75,30.20,30.05,29.83,8,6,2,10,6,15,0.00,2,,79
2012-12-15,36,35,33,34,32,28,100,88,75,29.81,29.60,29.51,10,3,1,13,6,15,0.44,8,Rain-Snow,48
2012-12-16,34,26,17,31,19,14,92,85,77,29.87,29.77,29.58,10,6,2,18,10,21,0.00,8,,326
2012-12-17,22,21,19,20,19,17,92,88,84,29.86,29.77,29.68,10,4,0,8,1,10,T,8,Fog-Snow,82
2012-12-18,24,22,20,22,19,18,96,90,84,29.86,29.73,29.65,6,4,2,9,4,12,T,8,Snow,108
2012-12-19,28,22,16,25,19,14,92,80,68,30.10,29.95,29.79,10,7,2,12,5,14,0.00,4,,206
2012-12-20,23,17,10,18,13,5,84,76,68,30.17,30.02,29.93,10,9,6,23,13,31,T,6,,337
2012-12-21,18,9,0,5,1,-3,95,76,56,30.35,30.29,30.18,10,10,10,13,6,16,0.00,0,,311
2012-12-22,21,11,1,12,6,-2,88,73,57,30.25,30.12,30.04,10,8,7,17,4,22,T,1,,349
2012-12-23,19,11,3,8,5,0,88,72,56,30.24,30.17,30.07,10,10,9,14,4,17,0.00,3,,11
2012-12-24,15,7,-1,8,2,-5,87,75,63,30.39,30.22,30.11,10,10,3,15,8,20,T,3,Snow,346
2012-12-25,7,0,-8,-4,-8,-13,87,74,60,30.58,30.53,30.40,10,10,10,9,5,13,0.00,0,,318
2012-12-26,13,6,-2,3,-2,-6,87,74,61,30.49,30.40,30.34,10,10,8,6,2,8,0.00,4,,346
2012-12-27,18,8,-2,14,8,-5,88,78,67,30.34,30.26,30.14,10,7,2,7,2,8,0.02,7,Snow,70
2012-12-28,22,17,11,16,13,10,92,85,77,30.21,30.10,30.01,10,4,2,7,4,8,0.05,8,Snow,19
2012-12-29,18,7,-4,14,5,-4,92,83,73,30.24,30.10,30.03,10,5,1,10,6,13,T,6,Snow,262
2012-12-30,19,6,-7,11,1,-11,91,81,71,30.25,30.11,29.92,10,7,4,16,5,22,0.00,1,,133
2012-12-31,16,4,-8,10,-1,-11,80,68,55,30.36,30.22,29.97,10,10,10,22,8,28,0.00,2,,323